Oxford, NC

6:58 PM EST on November 20, 2019 (GMT -0500)
Henderson-Oxford

Weather History for KHNZ - June, 2019

Change the Weather History Date:

Saturday, June 8, 2019

  Actual Average (KTDF) Record (KTDF)
Temperature  
Mean Temperature 69 °F -  
Max Temperature 72 °F 83 °F 98 °F (2008)
Min Temperature 66 °F 59 °F 39 °F (1977)
Cooling Degree Days 4    
Growing Degree Days 19 (Base 50)    
Moisture  
Dew Point 67 °F    
Average Humidity 94    
Maximum Humidity 99    
Minimum Humidity 86    
Precipitation  
Precipitation 0.74 in - - ()
Sea Level Pressure  
Sea Level Pressure 29.97 in    
Wind  
Wind Speed 2 mph (ENE)    
Max Wind Speed 14 mph    
Max Gust Speed 18 mph    
Visibility 8 miles    
Events Rain    
Averages and records for this station are not official NWS values.
T = Trace of Precipitation, MM = Missing Value Source: NWS Daily Summary

Daily Weather History Graph

Daily Weather History Graph

Search for Another Location

Airport or City:

Astronomy

Jun. 08, 2019 Rise Set
Actual Time 5:56 AM EDT 8:30 PM EDT
Civil Twilight 5:25 AM EDT 9:00 PM EDT
Nautical Twilight 4:48 AM EDT 9:38 PM EDT
Astronomical Twilight 4:06 AM EDT 10:19 PM EDT
Moon 11:17 AM EDT (6/8) 12:33 AM EDT (6/8)
Length of Visible Light 15h 34m
Length of Day
14h 34m
Waxing Crescent, 32% of the Moon is Illuminated
Jun 8
Waxing Crescent
Jun 10
First Quarter
Jun 17
Full
Jun 25
Last Quarter
Jul 2
New

Hourly Weather History & Observations

Time (EDT) Temp. Dew Point Humidity Pressure Visibility Wind Dir Wind Speed Gust Speed Precip Events Conditions
12:00 AM 67.3 °F 66.6 °F 98% 29.90 in 5.0 mi Calm Calm - N/A Rain Light Rain
12:20 AM 67.1 °F 66.4 °F 98% 29.89 in 7.0 mi Calm Calm - 0.01 in   Light Drizzle
12:40 AM 67.1 °F 66.4 °F 98% 29.89 in 7.0 mi Calm Calm - 0.01 in   Overcast
1:00 AM 67.1 °F 66.4 °F 98% 29.90 in 10.0 mi Calm Calm - N/A   Overcast
1:20 AM 67.1 °F 66.4 °F 98% 29.89 in 10.0 mi Calm Calm - N/A   Overcast
1:40 AM 67.1 °F 66.4 °F 98% 29.89 in 7.0 mi Calm Calm - N/A Rain Light Rain
2:00 AM 67.5 °F 66.7 °F 98% 29.90 in 1.0 mi Calm Calm - N/A Rain Rain
2:20 AM 67.5 °F 67.1 °F 99% 29.89 in 3.0 mi Calm Calm - 0.06 in Rain Light Rain
2:40 AM 67.6 °F 67.1 °F 98% 29.88 in 3.0 mi Calm Calm - 0.08 in Rain Light Rain
3:00 AM 67.6 °F 67.1 °F 98% 29.88 in 5.0 mi Calm Calm - N/A   Overcast
3:20 AM 68.0 °F 67.3 °F 98% 29.89 in 5.0 mi Calm Calm - N/A   Overcast
3:40 AM 68.2 °F 67.6 °F 98% 29.89 in 5.0 mi Calm Calm - N/A   Overcast
4:00 AM 68.2 °F 67.6 °F 98% 29.90 in 7.0 mi Calm Calm - N/A Rain Light Rain
4:20 AM 68.2 °F 67.6 °F 98% 29.89 in 4.0 mi Calm Calm - 0.08 in Rain Heavy Rain
4:40 AM 68.2 °F 67.5 °F 98% 29.90 in 5.0 mi Calm Calm - 0.17 in Rain Rain
5:00 AM 68.0 °F 67.1 °F 97% 29.89 in 5.0 mi Calm Calm - 0.02 in Rain Heavy Rain
5:20 AM 67.5 °F 66.7 °F 98% 29.89 in 10.0 mi Calm Calm - 0.04 in Rain Light Rain
6:00 AM 67.1 °F 66.2 °F 97% 29.90 in 10.0 mi Calm Calm - N/A   Overcast
6:20 AM 67.1 °F 66.2 °F 97% 29.91 in 10.0 mi Calm Calm - N/A   Overcast
6:40 AM 66.7 °F 65.7 °F 96% 29.92 in 10.0 mi Calm Calm - N/A   Overcast
7:00 AM 66.6 °F 65.5 °F 96% 29.93 in 10.0 mi Calm Calm - N/A   Overcast
7:20 AM 66.6 °F 65.5 °F 96% 29.93 in 10.0 mi Calm Calm - N/A Rain Light Rain
7:40 AM 66.6 °F 65.7 °F 97% 29.94 in 5.0 mi ENE 10.4 mph - 0.04 in Rain Rain
8:00 AM 66.7 °F 65.8 °F 97% 29.94 in 7.0 mi Calm Calm - N/A Rain Light Rain
8:20 AM 67.1 °F 66.2 °F 97% 29.95 in 10.0 mi Calm Calm - N/A Rain Light Rain
8:40 AM 67.5 °F 66.6 °F 97% 29.96 in 10.0 mi Calm Calm - N/A   Overcast
9:00 AM 67.5 °F 66.4 °F 96% 29.97 in 5.0 mi Calm Calm - 0.02 in Rain Rain
9:20 AM 67.5 °F 66.6 °F 97% 29.96 in 4.0 mi East 10.4 mph - 0.22 in Rain Light Rain
9:40 AM 68.0 °F 66.7 °F 96% 29.97 in 7.0 mi East 5.8 mph - 0.24 in Rain Rain
10:00 AM 68.0 °F 66.9 °F 96% 29.98 in 5.0 mi ENE 4.6 mph - N/A Rain Light Rain
10:20 AM 68.0 °F 66.9 °F 96% 29.98 in 4.0 mi Calm Calm - 0.06 in Rain Rain
10:40 AM 68.0 °F 67.1 °F 97% 29.99 in 3.0 mi ENE 6.9 mph - 0.15 in Rain Heavy Rain
11:00 AM 68.7 °F 67.5 °F 96% 29.99 in 10.0 mi East 6.9 mph - N/A   Overcast
11:20 AM 69.1 °F 67.8 °F 96% 30.00 in 10.0 mi East 5.8 mph - N/A   Overcast
11:40 AM 69.4 °F 68.0 °F 95% 30.00 in 10.0 mi Calm Calm - N/A   Overcast
12:00 PM 70.0 °F 68.4 °F 95% 30.01 in 10.0 mi Calm Calm - N/A   Overcast
12:20 PM 69.3 °F 68.0 °F 96% 30.01 in 10.0 mi Calm Calm - N/A Rain Light Rain
12:40 PM 69.1 °F 67.8 °F 96% 30.00 in 7.0 mi ENE 5.8 mph - 0.02 in Rain Rain
1:00 PM 68.5 °F 67.3 °F 96% 30.01 in 10.0 mi ENE 9.2 mph 16.1 mph N/A   Overcast
1:20 PM 68.7 °F 67.3 °F 95% 30.00 in 10.0 mi ENE 10.4 mph - N/A   Overcast
1:40 PM 68.9 °F 67.6 °F 96% 30.01 in 10.0 mi Calm Calm - N/A   Overcast
2:00 PM 69.8 °F 68.2 °F 95% 30.00 in 10.0 mi Calm Calm - N/A   Overcast
2:20 PM 69.6 °F 67.8 °F 94% 30.00 in 10.0 mi ENE 6.9 mph - N/A   Overcast
2:40 PM 71.8 °F 69.1 °F 91% 29.99 in 10.0 mi East 8.1 mph - N/A   Overcast
3:00 PM 71.6 °F 68.2 °F 89% 29.99 in 10.0 mi ENE 13.8 mph 18.4 mph N/A   Overcast
3:20 PM 71.8 °F 68.2 °F 88% 29.99 in 10.0 mi ENE 11.5 mph - N/A   Overcast
3:40 PM 72.0 °F 68.4 °F 88% 30.00 in 10.0 mi Calm Calm - N/A   Mostly Cloudy
4:00 PM 72.7 °F 68.4 °F 86% 29.99 in 10.0 mi ENE 4.6 mph 17.3 mph N/A   Mostly Cloudy
4:20 PM 72.7 °F 68.4 °F 86% 29.99 in 10.0 mi ENE 10.4 mph - N/A   Overcast
4:40 PM 72.5 °F 68.2 °F 86% 29.98 in 10.0 mi ENE 11.5 mph 16.1 mph N/A   Overcast
5:00 PM 72.3 °F 68.4 °F 87% 29.99 in 10.0 mi ENE 6.9 mph - N/A   Overcast
5:20 PM 72.5 °F 68.4 °F 87% 29.99 in 10.0 mi ENE 6.9 mph - N/A   Mostly Cloudy
5:40 PM 71.6 °F 68.0 °F 88% 29.99 in 10.0 mi Calm Calm - N/A   Overcast
6:00 PM 70.3 °F 68.0 °F 92% 30.00 in 10.0 mi Calm Calm - N/A   Overcast
6:20 PM 69.8 °F 67.6 °F 93% 30.01 in 7.0 mi ENE 8.1 mph - N/A Rain Light Rain
6:40 PM 69.4 °F 67.6 °F 94% 30.02 in 7.0 mi Calm Calm - N/A   Light Drizzle
7:00 PM 69.8 °F 67.5 °F 92% 30.02 in 10.0 mi Calm Calm - N/A   Mostly Cloudy
7:20 PM 70.0 °F 67.3 °F 91% 30.02 in 10.0 mi ENE 8.1 mph - N/A   Mostly Cloudy
7:40 PM 70.0 °F 67.3 °F 91% 30.02 in 10.0 mi Calm Calm - N/A   Mostly Cloudy
8:00 PM 69.8 °F 67.1 °F 91% 30.03 in 10.0 mi Calm Calm - N/A   Overcast
8:20 PM 69.3 °F 66.7 °F 92% 30.03 in 10.0 mi ENE 9.2 mph - N/A   Overcast
8:40 PM 68.9 °F 66.6 °F 92% 30.03 in 10.0 mi Calm Calm - N/A   Mostly Cloudy
9:00 PM 68.4 °F 65.8 °F 92% 30.04 in 10.0 mi ENE 9.2 mph - N/A   Mostly Cloudy
9:20 PM 68.4 °F 65.5 °F 90% 30.04 in 10.0 mi East 4.6 mph - N/A   Mostly Cloudy
9:40 PM 68.2 °F 65.5 °F 91% 30.04 in 10.0 mi ENE 12.7 mph 18.4 mph N/A   Overcast
10:00 PM 67.8 °F 65.8 °F 93% 30.05 in 10.0 mi Calm Calm - N/A   Mostly Cloudy
10:20 PM 68.0 °F 65.7 °F 92% 30.06 in 10.0 mi Calm Calm - N/A   Overcast
10:40 PM 68.0 °F 65.7 °F 92% 30.06 in 10.0 mi Calm Calm - N/A   Overcast
11:00 PM 68.0 °F 65.5 °F 92% 30.05 in 10.0 mi ENE 10.4 mph - N/A   Overcast
11:20 PM 67.6 °F 65.8 °F 94% 30.05 in 10.0 mi ENE 5.8 mph - N/A   Overcast
11:40 PM 67.3 °F 65.7 °F 95% 30.05 in 10.0 mi ENE 9.2 mph - N/A   Overcast